Zurück zum Katalog

STARLINK-34551

AktivKommunikationVLEO
NORAD 64682·PAYLOAD·🇺🇸 United States

Gestartet Jun 28, 2025 von Cape Canaveral Space Force Station

Loading…

Nächste Überflüge (nächste 24 Stunden)

TLE

AktuellSource: CelesTrak SupGP

Epoche: Sep 14, 2026, 21:25 UTC

1 64682C 25139U   26257.89284722 -.00001482  00000+0 -43795-4 0  2575
2 64682  53.1588 315.9691 0001222  78.8981 309.9650 15.34384265    14

Verfolge STARLINK-34551 in Echtzeit mit AllMySat

Download on the App Store